Location: Unspecified
(0.0000°N, 0.0000°E)
Time: 16:48:02
(UTC+00:00)

STARLINK 1008 - Pass Details

Date: 12 December 2019
Orbit: 347 x 352 km, 53.0° (Epoch: 17 January)

Event Time Altitude Azimuth Distance (km) Brightness Sun altitude
Rises 19:47:29 0° 225° (SW) 2,207 7.9 -26.0°
Reaches altitude 10° 19:49:35 10° 234° (SW) 1,366 6.6 -26.4°
Enters shadow 19:50:44 20° 245° (WSW) 939 5.6 -26.7°
